contact:dominique.lefevre@mio.osupytheas.fr, maurice.libes@osupytheas.fr, didier.mallarino@osupytheas.fr
Project:EMSO http://www.emso-fr.org/EMSO-France
Depth: 2436.0 m
Title:EMSO Ligure Ouest : Data MII capteur OXYGEN
DateTime,Latitude,Longitude,Optode-Type,Optode_Serial,Oxygen,Saturation_Oxygen,Temperature
DateTime,Latitude,Longitude,Optode-Type,Optode_Serial,µmol.l-1,%,degC
2017-11-05T00:01:25,42.805,6.029,4330,1995,198.929,60.833,13.286
2017-11-05T00:04:25,42.805,6.029,4330,1995,198.949,60.838,13.286
2017-11-05T00:07:25,42.805,6.029,4330,1995,198.930,60.833,13.286
2017-11-05T00:10:25,42.805,6.029,4330,1995,198.969,60.845,13.286
2017-11-05T00:13:25,42.805,6.029,4330,1995,198.920,60.830,13.286
2017-11-05T00:16:25,42.805,6.029,4330,1995,198.902,60.824,13.286
2017-11-05T00:19:25,42.805,6.029,4330,1995,198.861,60.812,13.286
2017-11-05T00:22:25,42.805,6.029,4330,1995,198.942,60.837,13.286
2017-11-05T00:25:25,42.805,6.029,4330,1995,198.934,60.834,13.286
2017-11-05T00:28:25,42.805,6.029,4330,1995,198.950,60.839,13.286
2017-11-05T00:31:24,42.805,6.029,4330,1995,198.908,60.826,13.286
2017-11-05T00:34:24,42.805,6.029,4330,1995,198.897,60.823,13.286
2017-11-05T00:37:24,42.805,6.029,4330,1995,198.969,60.845,13.286
2017-11-05T00:40:24,42.805,6.029,4330,1995,198.988,60.851,13.286
2017-11-05T00:43:24,42.805,6.029,4330,1995,198.947,60.838,13.286
2017-11-05T00:46:24,42.805,6.029,4330,1995,198.908,60.827,13.286
2017-11-05T00:49:24,42.805,6.029,4330,1995,198.967,60.844,13.286
2017-11-05T00:52:24,42.805,6.029,4330,1995,198.910,60.827,13.286
2017-11-05T00:55:24,42.805,6.029,4330,1995,198.985,60.849,13.286
2017-11-05T00:58:24,42.805,6.029,4330,1995,198.966,60.844,13.286
2017-11-05T01:01:24,42.805,6.029,4330,1995,198.991,60.852,13.286
2017-11-05T01:04:24,42.805,6.029,4330,1995,198.913,60.828,13.286
2017-11-05T01:07:24,42.805,6.029,4330,1995,198.939,60.835,13.286
2017-11-05T01:10:24,42.805,6.029,4330,1995,198.946,60.838,13.286
2017-11-05T01:13:24,42.805,6.029,4330,1995,199.002,60.855,13.286
2017-11-05T01:16:24,42.805,6.029,4330,1995,198.968,60.845,13.286
2017-11-05T01:19:24,42.805,6.029,4330,1995,198.965,60.844,13.286
2017-11-05T01:22:24,42.805,6.029,4330,1995,198.995,60.853,13.286
2017-11-05T01:25:24,42.805,6.029,4330,1995,198.990,60.851,13.286
2017-11-05T01:28:24,42.805,6.029,4330,1995,198.970,60.845,13.286
2017-11-05T01:31:24,42.805,6.029,4330,1995,198.905,60.826,13.287
2017-11-05T01:34:24,42.805,6.029,4330,1995,198.932,60.833,13.286
2017-11-05T01:37:24,42.805,6.029,4330,1995,198.950,60.839,13.286
2017-11-05T01:40:24,42.805,6.029,4330,1995,198.973,60.847,13.286
2017-11-05T01:43:24,42.805,6.029,4330,1995,198.921,60.830,13.286
2017-11-05T01:46:24,42.805,6.029,4330,1995,198.891,60.821,13.286
2017-11-05T01:49:24,42.805,6.029,4330,1995,198.943,60.837,13.286
2017-11-05T01:52:24,42.805,6.029,4330,1995,198.968,60.844,13.286
2017-11-05T01:55:24,42.805,6.029,4330,1995,198.919,60.830,13.286
2017-11-05T01:58:24,42.805,6.029,4330,1995,198.927,60.832,13.286
2017-11-05T02:01:24,42.805,6.029,4330,1995,198.904,60.825,13.286
2017-11-05T02:04:24,42.805,6.029,4330,1995,198.959,60.842,13.286
2017-11-05T02:07:24,42.805,6.029,4330,1995,198.822,60.800,13.286
2017-11-05T02:10:24,42.805,6.029,4330,1995,198.940,60.836,13.286
2017-11-05T02:13:24,42.805,6.029,4330,1995,198.919,60.829,13.286
2017-11-05T02:16:24,42.805,6.029,4330,1995,198.912,60.828,13.286
2017-11-05T02:19:24,42.805,6.029,4330,1995,198.944,60.837,13.286
2017-11-05T02:22:24,42.805,6.029,4330,1995,198.934,60.834,13.286
2017-11-05T02:25:24,42.805,6.029,4330,1995,198.919,60.829,13.286
2017-11-05T02:28:24,42.805,6.029,4330,1995,198.959,60.842,13.286
2017-11-05T02:31:24,42.805,6.029,4330,1995,198.932,60.834,13.286
2017-11-05T02:34:24,42.805,6.029,4330,1995,198.983,60.849,13.286
2017-11-05T02:37:24,42.805,6.029,4330,1995,198.939,60.836,13.286
2017-11-05T02:40:24,42.805,6.029,4330,1995,199.040,60.867,13.286
2017-11-05T02:43:24,42.805,6.029,4330,1995,198.992,60.852,13.286
2017-11-05T02:46:24,42.805,6.029,4330,1995,198.994,60.852,13.286
2017-11-05T02:49:24,42.805,6.029,4330,1995,198.948,60.838,13.286
2017-11-05T02:52:24,42.805,6.029,4330,1995,198.930,60.833,13.286
2017-11-05T02:55:24,42.805,6.029,4330,1995,198.897,60.823,13.286
2017-11-05T02:58:24,42.805,6.029,4330,1995,198.891,60.821,13.286
2017-11-05T03:01:24,42.805,6.029,4330,1995,198.943,60.837,13.286
2017-11-05T03:04:24,42.805,6.029,4330,1995,198.992,60.852,13.286
2017-11-05T03:07:24,42.805,6.029,4330,1995,198.920,60.830,13.286
2017-11-05T03:10:24,42.805,6.029,4330,1995,198.950,60.839,13.286
2017-11-05T03:13:24,42.805,6.029,4330,1995,198.893,60.822,13.286
2017-11-05T03:16:24,42.805,6.029,4330,1995,198.883,60.819,13.286
2017-11-05T03:19:24,42.805,6.029,4330,1995,198.898,60.823,13.286
2017-11-05T03:22:24,42.805,6.029,4330,1995,198.926,60.832,13.286
2017-11-05T03:25:24,42.805,6.029,4330,1995,198.993,60.852,13.286
2017-11-05T03:28:24,42.805,6.029,4330,1995,198.883,60.818,13.286
2017-11-05T03:31:24,42.805,6.029,4330,1995,198.912,60.827,13.286
2017-11-05T03:34:24,42.805,6.029,4330,1995,198.864,60.813,13.286
2017-11-05T03:37:24,42.805,6.029,4330,1995,198.889,60.820,13.286
2017-11-05T03:40:24,42.805,6.029,4330,1995,198.899,60.823,13.286
2017-11-05T03:43:24,42.805,6.029,4330,1995,198.883,60.819,13.286
2017-11-05T03:46:24,42.805,6.029,4330,1995,198.937,60.835,13.286
2017-11-05T03:49:24,42.805,6.029,4330,1995,198.960,60.842,13.286
2017-11-05T03:52:24,42.805,6.029,4330,1995,198.930,60.833,13.286
2017-11-05T03:55:24,42.805,6.029,4330,1995,198.851,60.809,13.286
2017-11-05T03:58:24,42.805,6.029,4330,1995,198.954,60.840,13.286
2017-11-05T04:01:24,42.805,6.029,4330,1995,198.878,60.817,13.286
2017-11-05T04:04:24,42.805,6.029,4330,1995,198.911,60.827,13.286
2017-11-05T04:07:24,42.805,6.029,4330,1995,198.877,60.817,13.286
2017-11-05T04:10:24,42.805,6.029,4330,1995,198.896,60.822,13.286
2017-11-05T04:13:24,42.805,6.029,4330,1995,198.820,60.799,13.286
2017-11-05T04:16:24,42.805,6.029,4330,1995,198.792,60.791,13.286
2017-11-05T04:19:24,42.805,6.029,4330,1995,198.811,60.796,13.286
2017-11-05T04:22:24,42.805,6.029,4330,1995,198.845,60.807,13.286
2017-11-05T04:25:24,42.805,6.029,4330,1995,198.852,60.809,13.286
2017-11-05T04:28:24,42.805,6.029,4330,1995,198.858,60.811,13.286
2017-11-05T04:31:24,42.805,6.029,4330,1995,198.798,60.793,13.286
2017-11-05T04:34:24,42.805,6.029,4330,1995,198.766,60.783,13.286
2017-11-05T04:37:24,42.805,6.029,4330,1995,198.790,60.790,13.286
2017-11-05T04:40:24,42.805,6.029,4330,1995,198.765,60.782,13.286
2017-11-05T04:43:24,42.805,6.029,4330,1995,198.741,60.775,13.286
2017-11-05T04:46:24,42.805,6.029,4330,1995,198.783,60.788,13.286
2017-11-05T04:49:24,42.805,6.029,4330,1995,198.798,60.793,13.286
2017-11-05T04:52:24,42.805,6.029,4330,1995,198.724,60.770,13.286
2017-11-05T04:55:24,42.805,6.029,4330,1995,198.741,60.776,13.286
2017-11-05T04:58:24,42.805,6.029,4330,1995,198.685,60.758,13.286
2017-11-05T05:01:24,42.805,6.029,4330,1995,198.730,60.772,13.286
2017-11-05T05:04:24,42.805,6.029,4330,1995,198.706,60.765,13.286
2017-11-05T05:07:24,42.805,6.029,4330,1995,198.662,60.752,13.286
2017-11-05T05:10:24,42.805,6.029,4330,1995,198.724,60.770,13.286
2017-11-05T05:13:24,42.805,6.029,4330,1995,198.671,60.754,13.286
2017-11-05T05:16:24,42.805,6.029,4330,1995,198.677,60.756,13.286
2017-11-05T05:19:24,42.805,6.029,4330,1995,198.628,60.741,13.286
2017-11-05T05:22:24,42.805,6.029,4330,1995,198.686,60.759,13.286
2017-11-05T05:25:24,42.805,6.029,4330,1995,198.612,60.736,13.286
2017-11-05T05:28:24,42.805,6.029,4330,1995,198.601,60.733,13.286
2017-11-05T05:31:24,42.805,6.029,4330,1995,198.626,60.740,13.286
2017-11-05T05:34:24,42.805,6.029,4330,1995,198.658,60.750,13.286
2017-11-05T05:37:24,42.805,6.029,4330,1995,198.598,60.732,13.286
2017-11-05T05:40:24,42.805,6.029,4330,1995,198.614,60.737,13.287
2017-11-05T05:43:24,42.805,6.029,4330,1995,198.590,60.729,13.286
2017-11-05T05:46:24,42.805,6.029,4330,1995,198.617,60.737,13.286
2017-11-05T05:49:24,42.805,6.029,4330,1995,198.555,60.719,13.287
2017-11-05T05:52:24,42.805,6.029,4330,1995,198.495,60.701,13.287
2017-11-05T05:55:24,42.805,6.029,4330,1995,198.546,60.716,13.287
2017-11-05T05:58:24,42.805,6.029,4330,1995,198.602,60.733,13.287
2017-11-05T06:01:24,42.805,6.029,4330,1995,198.542,60.715,13.287
2017-11-05T06:04:24,42.805,6.029,4330,1995,198.615,60.737,13.286
2017-11-05T06:07:24,42.805,6.029,4330,1995,198.571,60.724,13.287
2017-11-05T06:10:24,42.805,6.029,4330,1995,198.580,60.726,13.286
2017-11-05T06:13:24,42.805,6.029,4330,1995,198.566,60.722,13.286
2017-11-05T06:16:24,42.805,6.029,4330,1995,198.587,60.729,13.286
2017-11-05T06:19:24,42.805,6.029,4330,1995,198.570,60.723,13.286
2017-11-05T06:22:24,42.805,6.029,4330,1995,198.485,60.699,13.287
2017-11-05T06:25:24,42.805,6.029,4330,1995,198.479,60.696,13.287
2017-11-05T06:28:24,42.805,6.029,4330,1995,198.502,60.702,13.286
2017-11-05T06:31:24,42.805,6.029,4330,1995,198.497,60.702,13.287
2017-11-05T06:34:24,42.805,6.029,4330,1995,198.530,60.711,13.287
2017-11-05T06:37:24,42.805,6.029,4330,1995,198.501,60.702,13.286
2017-11-05T06:40:24,42.805,6.029,4330,1995,198.519,60.708,13.287
2017-11-05T06:43:24,42.805,6.029,4330,1995,198.545,60.715,13.286
2017-11-05T06:46:24,42.805,6.029,4330,1995,198.469,60.693,13.287
2017-11-05T06:49:24,42.805,6.029,4330,1995,198.449,60.687,13.287
2017-11-05T06:52:24,42.805,6.029,4330,1995,198.522,60.709,13.287
2017-11-05T06:55:24,42.805,6.029,4330,1995,198.484,60.697,13.286
2017-11-05T06:58:24,42.805,6.029,4330,1995,198.466,60.692,13.287
2017-11-05T07:01:24,42.805,6.029,4330,1995,198.428,60.679,13.286
2017-11-05T07:04:24,42.805,6.029,4330,1995,198.522,60.709,13.287
2017-11-05T07:07:24,42.805,6.029,4330,1995,198.464,60.691,13.286
2017-11-05T07:10:24,42.805,6.029,4330,1995,198.423,60.679,13.287
2017-11-05T07:13:24,42.805,6.029,4330,1995,198.405,60.673,13.287
2017-11-05T07:16:24,42.805,6.029,4330,1995,198.429,60.681,13.287
2017-11-05T07:19:24,42.805,6.029,4330,1995,198.407,60.676,13.288
2017-11-05T07:22:24,42.805,6.029,4330,1995,198.522,60.709,13.287
2017-11-05T07:25:24,42.805,6.029,4330,1995,198.443,60.685,13.286
2017-11-05T07:28:24,42.805,6.029,4330,1995,198.447,60.686,13.287
2017-11-05T07:31:24,42.805,6.029,4330,1995,198.451,60.688,13.287
2017-11-05T07:34:24,42.805,6.029,4330,1995,198.404,60.672,13.286
2017-11-05T07:37:24,42.805,6.029,4330,1995,198.428,60.680,13.286
2017-11-05T07:40:24,42.805,6.029,4330,1995,198.476,60.695,13.287
2017-11-05T07:43:24,42.805,6.029,4330,1995,198.433,60.682,13.287
2017-11-05T07:46:24,42.805,6.029,4330,1995,198.329,60.650,13.286
2017-11-05T07:49:24,42.805,6.029,4330,1995,198.367,60.662,13.287
2017-11-05T07:52:24,42.805,6.029,4330,1995,198.344,60.655,13.287
2017-11-05T07:55:24,42.805,6.029,4330,1995,198.308,60.643,13.286
2017-11-05T07:58:24,42.805,6.029,4330,1995,198.245,60.624,13.287
2017-11-05T08:01:24,42.805,6.029,4330,1995,198.251,60.626,13.287
2017-11-05T08:04:24,42.805,6.029,4330,1995,198.340,60.653,13.286
2017-11-05T08:07:24,42.805,6.029,4330,1995,198.390,60.668,13.287
2017-11-05T08:10:24,42.805,6.029,4330,1995,198.388,60.668,13.287
2017-11-05T08:13:24,42.805,6.029,4330,1995,198.424,60.678,13.286
2017-11-05T08:16:24,42.805,6.029,4330,1995,198.335,60.652,13.287
2017-11-05T08:19:24,42.805,6.029,4330,1995,198.218,60.615,13.286
2017-11-05T08:22:24,42.805,6.029,4330,1995,198.249,60.625,13.286
2017-11-05T08:25:24,42.805,6.029,4330,1995,198.199,60.610,13.287
2017-11-05T08:28:24,42.805,6.029,4330,1995,198.177,60.604,13.287
2017-11-05T08:31:24,42.805,6.029,4330,1995,198.213,60.614,13.286
2017-11-05T08:34:24,42.805,6.029,4330,1995,198.290,60.638,13.286
2017-11-05T08:37:24,42.805,6.029,4330,1995,198.250,60.626,13.287
2017-11-05T08:40:24,42.805,6.029,4330,1995,198.234,60.621,13.286
2017-11-05T08:43:24,42.805,6.029,4330,1995,198.230,60.619,13.287
2017-11-05T08:46:24,42.805,6.029,4330,1995,198.197,60.609,13.287
2017-11-05T08:49:24,42.805,6.029,4330,1995,198.121,60.586,13.286
2017-11-05T08:52:24,42.805,6.029,4330,1995,198.294,60.640,13.287
2017-11-05T08:55:24,42.805,6.029,4330,1995,198.079,60.573,13.287
2017-11-05T08:58:24,42.805,6.029,4330,1995,198.109,60.583,13.287
2017-11-05T09:01:24,42.805,6.029,4330,1995,198.014,60.554,13.287
2017-11-05T09:04:24,42.805,6.029,4330,1995,198.232,60.619,13.286
2017-11-05T09:07:24,42.805,6.029,4330,1995,198.179,60.604,13.286
2017-11-05T09:10:24,42.805,6.029,4330,1995,198.199,60.610,13.287
2017-11-05T09:13:24,42.805,6.029,4330,1995,198.007,60.551,13.287
2017-11-05T09:16:24,42.805,6.029,4330,1995,198.027,60.558,13.287
2017-11-05T09:19:24,42.805,6.029,4330,1995,198.079,60.573,13.286
2017-11-05T09:22:24,42.805,6.029,4330,1995,198.109,60.582,13.286
2017-11-05T09:25:24,42.805,6.029,4330,1995,198.048,60.565,13.287
2017-11-05T09:28:24,42.805,6.029,4330,1995,198.209,60.613,13.287
2017-11-05T09:31:24,42.805,6.029,4330,1995,198.038,60.561,13.287
2017-11-05T09:34:24,42.805,6.029,4330,1995,198.078,60.574,13.287
2017-11-05T09:37:24,42.805,6.029,4330,1995,198.074,60.572,13.287
2017-11-05T09:40:24,42.805,6.029,4330,1995,197.955,60.535,13.287
2017-11-05T09:43:24,42.805,6.029,4330,1995,198.020,60.556,13.287
2017-11-05T09:46:24,42.805,6.029,4330,1995,197.969,60.540,13.287
2017-11-05T09:49:24,42.805,6.029,4330,1995,198.025,60.557,13.287
2017-11-05T09:52:24,42.805,6.029,4330,1995,197.902,60.519,13.287
2017-11-05T09:55:24,42.805,6.029,4330,1995,197.995,60.548,13.287
2017-11-05T09:58:24,42.805,6.029,4330,1995,197.973,60.541,13.287
2017-11-05T10:01:24,42.805,6.029,4330,1995,197.937,60.532,13.288
2017-11-05T10:04:24,42.805,6.029,4330,1995,197.931,60.529,13.287
2017-11-05T10:07:24,42.805,6.029,4330,1995,197.977,60.544,13.288
2017-11-05T10:10:24,42.805,6.029,4330,1995,197.821,60.495,13.287
2017-11-05T10:13:24,42.805,6.029,4330,1995,197.946,60.533,13.287
2017-11-05T10:16:24,42.805,6.029,4330,1995,197.928,60.527,13.287
2017-11-05T10:19:24,42.805,6.029,4330,1995,197.926,60.527,13.287
2017-11-05T10:22:24,42.805,6.029,4330,1995,197.987,60.545,13.287
2017-11-05T10:25:24,42.805,6.029,4330,1995,197.999,60.549,13.287
2017-11-05T10:28:24,42.805,6.029,4330,1995,197.942,60.532,13.287
2017-11-05T10:31:24,42.805,6.029,4330,1995,197.867,60.508,13.286
2017-11-05T10:34:24,42.805,6.029,4330,1995,197.906,60.520,13.286
2017-11-05T10:37:24,42.805,6.029,4330,1995,197.976,60.542,13.287
2017-11-05T10:40:24,42.805,6.029,4330,1995,198.062,60.569,13.287
2017-11-05T10:43:24,42.805,6.029,4330,1995,197.917,60.524,13.287
2017-11-05T10:46:24,42.805,6.029,4330,1995,197.824,60.495,13.286
2017-11-05T10:49:24,42.805,6.029,4330,1995,197.785,60.488,13.290
2017-11-05T10:52:24,42.805,6.029,4330,1995,197.557,60.414,13.287
2017-11-05T10:55:24,42.805,6.029,4330,1995,197.582,60.422,13.287
2017-11-05T10:58:24,42.805,6.029,4330,1995,197.762,60.476,13.287
2017-11-05T11:01:24,42.805,6.029,4330,1995,197.821,60.495,13.287
2017-11-05T11:04:24,42.805,6.029,4330,1995,197.847,60.502,13.286
2017-11-05T11:07:24,42.805,6.029,4330,1995,197.827,60.497,13.287
2017-11-05T11:10:24,42.805,6.029,4330,1995,197.831,60.497,13.286
2017-11-05T11:13:24,42.805,6.029,4330,1995,197.762,60.476,13.286
2017-11-05T11:16:24,42.805,6.029,4330,1995,197.761,60.477,13.287
2017-11-05T11:19:24,42.805,6.029,4330,1995,197.649,60.442,13.287
2017-11-05T11:22:24,42.805,6.029,4330,1995,197.799,60.488,13.287
2017-11-05T11:25:24,42.805,6.029,4330,1995,197.764,60.477,13.286
2017-11-05T11:28:24,42.805,6.029,4330,1995,197.782,60.482,13.286
2017-11-05T11:31:24,42.805,6.029,4330,1995,197.768,60.478,13.286
2017-11-05T11:34:24,42.805,6.029,4330,1995,197.775,60.480,13.286
2017-11-05T11:37:24,42.805,6.029,4330,1995,197.686,60.453,13.287
2017-11-05T11:40:24,42.805,6.029,4330,1995,197.608,60.429,13.287
2017-11-05T11:43:24,42.805,6.029,4330,1995,197.598,60.427,13.287
2017-11-05T11:46:24,42.805,6.029,4330,1995,197.651,60.443,13.287
2017-11-05T11:49:24,42.805,6.029,4330,1995,197.605,60.429,13.287
2017-11-05T11:52:24,42.805,6.029,4330,1995,197.616,60.432,13.287
2017-11-05T11:55:24,42.805,6.029,4330,1995,197.699,60.457,13.287
2017-11-05T11:58:24,42.805,6.029,4330,1995,197.683,60.453,13.287
2017-11-05T12:01:24,42.805,6.029,4330,1995,197.809,60.491,13.287
2017-11-05T12:04:24,42.805,6.029,4330,1995,197.694,60.456,13.287
2017-11-05T12:07:24,42.805,6.029,4330,1995,197.693,60.456,13.287
2017-11-05T12:10:24,42.805,6.029,4330,1995,197.757,60.475,13.287
2017-11-05T12:13:24,42.805,6.029,4330,1995,197.793,60.487,13.287
2017-11-05T12:16:24,42.805,6.029,4330,1995,197.759,60.476,13.287
2017-11-05T12:19:24,42.805,6.029,4330,1995,197.740,60.470,13.287
2017-11-05T12:22:24,42.805,6.029,4330,1995,197.781,60.482,13.286
2017-11-05T12:25:24,42.805,6.029,4330,1995,197.895,60.517,13.287
2017-11-05T12:28:24,42.805,6.029,4330,1995,197.970,60.540,13.287
2017-11-05T12:31:24,42.805,6.029,4330,1995,197.847,60.502,13.286
2017-11-05T12:34:24,42.805,6.029,4330,1995,197.850,60.503,13.286
2017-11-05T12:37:24,42.805,6.029,4330,1995,197.828,60.497,13.286
2017-11-05T12:40:24,42.805,6.029,4330,1995,197.778,60.481,13.286
2017-11-05T12:43:24,42.805,6.029,4330,1995,197.925,60.526,13.286
2017-11-05T12:46:24,42.805,6.029,4330,1995,197.961,60.537,13.286
2017-11-05T12:49:24,42.805,6.029,4330,1995,197.980,60.543,13.286
2017-11-05T12:52:24,42.805,6.029,4330,1995,197.947,60.532,13.286
2017-11-05T12:55:24,42.805,6.029,4330,1995,198.002,60.549,13.286
2017-11-05T12:58:24,42.805,6.029,4330,1995,198.030,60.558,13.286
2017-11-05T13:01:24,42.805,6.029,4330,1995,198.070,60.571,13.286
2017-11-05T13:04:24,42.805,6.029,4330,1995,197.981,60.543,13.286
2017-11-05T13:07:24,42.805,6.029,4330,1995,197.927,60.527,13.286
2017-11-05T13:10:24,42.805,6.029,4330,1995,197.989,60.546,13.286
2017-11-05T13:13:24,42.805,6.029,4330,1995,198.018,60.554,13.286
2017-11-05T13:16:24,42.805,6.029,4330,1995,198.000,60.549,13.287
2017-11-05T13:19:24,42.805,6.029,4330,1995,198.014,60.553,13.287
2017-11-05T13:22:24,42.805,6.029,4330,1995,198.049,60.564,13.286
2017-11-05T13:25:24,42.805,6.029,4330,1995,198.079,60.573,13.286
2017-11-05T13:28:24,42.805,6.029,4330,1995,197.981,60.543,13.286
2017-11-05T13:31:24,42.805,6.029,4330,1995,197.944,60.532,13.286
2017-11-05T13:34:24,42.805,6.029,4330,1995,198.049,60.564,13.286
2017-11-05T13:37:24,42.805,6.029,4330,1995,197.950,60.534,13.286
2017-11-05T13:40:24,42.805,6.029,4330,1995,197.995,60.548,13.287
2017-11-05T13:43:24,42.805,6.029,4330,1995,197.900,60.518,13.286
2017-11-05T13:46:24,42.805,6.029,4330,1995,197.952,60.534,13.286
2017-11-05T13:49:24,42.805,6.029,4330,1995,197.894,60.517,13.286
2017-11-05T13:52:24,42.805,6.029,4330,1995,197.931,60.527,13.286
2017-11-05T13:55:24,42.805,6.029,4330,1995,197.907,60.520,13.286
2017-11-05T13:58:24,42.805,6.029,4330,1995,198.094,60.578,13.286
2017-11-05T14:01:24,42.805,6.029,4330,1995,198.094,60.578,13.286
2017-11-05T14:04:24,42.805,6.029,4330,1995,198.051,60.564,13.286
2017-11-05T14:07:24,42.805,6.029,4330,1995,198.022,60.556,13.286
2017-11-05T14:10:24,42.805,6.029,4330,1995,198.051,60.564,13.286
2017-11-05T14:13:24,42.805,6.029,4330,1995,198.034,60.559,13.286
2017-11-05T14:16:24,42.805,6.029,4330,1995,198.026,60.556,13.286
2017-11-05T14:19:24,42.805,6.029,4330,1995,198.003,60.549,13.286
2017-11-05T14:22:24,42.805,6.029,4330,1995,197.930,60.527,13.286
2017-11-05T14:25:24,42.805,6.029,4330,1995,197.941,60.530,13.286
2017-11-05T14:28:24,42.805,6.029,4330,1995,197.982,60.543,13.286
2017-11-05T14:31:24,42.805,6.029,4330,1995,197.925,60.526,13.286
2017-11-05T14:34:24,42.805,6.029,4330,1995,197.900,60.518,13.286
2017-11-05T14:37:24,42.805,6.029,4330,1995,198.063,60.568,13.286
2017-11-05T14:40:24,42.805,6.029,4330,1995,198.007,60.551,13.286
2017-11-05T14:43:24,42.805,6.029,4330,1995,198.023,60.556,13.286
2017-11-05T14:46:24,42.805,6.029,4330,1995,197.949,60.533,13.286
2017-11-05T14:49:24,42.805,6.029,4330,1995,197.893,60.516,13.286
2017-11-05T14:52:24,42.805,6.029,4330,1995,197.959,60.536,13.286
2017-11-05T14:55:24,42.805,6.029,4330,1995,198.039,60.560,13.286
2017-11-05T14:58:24,42.805,6.029,4330,1995,198.091,60.576,13.286
2017-11-05T15:01:24,42.805,6.029,4330,1995,198.084,60.574,13.286
2017-11-05T15:04:24,42.805,6.029,4330,1995,198.095,60.578,13.286
2017-11-05T15:07:24,42.805,6.029,4330,1995,198.108,60.582,13.286
2017-11-05T15:10:24,42.805,6.029,4330,1995,198.141,60.591,13.286
2017-11-05T15:13:24,42.805,6.029,4330,1995,198.109,60.582,13.286
2017-11-05T15:16:24,42.805,6.029,4330,1995,198.135,60.590,13.286
2017-11-05T15:19:24,42.805,6.029,4330,1995,198.147,60.593,13.286
2017-11-05T15:22:24,42.805,6.029,4330,1995,198.146,60.593,13.286
2017-11-05T15:25:24,42.805,6.029,4330,1995,198.151,60.595,13.286
2017-11-05T15:28:24,42.805,6.029,4330,1995,198.133,60.590,13.286
2017-11-05T15:31:24,42.805,6.029,4330,1995,198.088,60.575,13.286
2017-11-05T15:34:24,42.805,6.029,4330,1995,198.101,60.579,13.286
2017-11-05T15:37:24,42.805,6.029,4330,1995,198.160,60.597,13.286
2017-11-05T15:40:24,42.805,6.029,4330,1995,198.173,60.601,13.286
2017-11-05T15:43:24,42.805,6.029,4330,1995,198.233,60.620,13.286
2017-11-05T15:46:24,42.805,6.029,4330,1995,198.273,60.632,13.286
2017-11-05T15:49:24,42.805,6.029,4330,1995,198.272,60.632,13.286
2017-11-05T15:52:24,42.805,6.029,4330,1995,198.287,60.636,13.286
2017-11-05T15:55:24,42.805,6.029,4330,1995,198.299,60.640,13.286
2017-11-05T15:58:24,42.805,6.029,4330,1995,198.302,60.642,13.287
2017-11-05T16:01:24,42.805,6.029,4330,1995,198.244,60.624,13.287
2017-11-05T16:04:24,42.805,6.029,4330,1995,198.348,60.655,13.286
2017-11-05T16:07:24,42.805,6.029,4330,1995,198.432,60.681,13.286
2017-11-05T16:10:24,42.805,6.029,4330,1995,198.431,60.681,13.286
2017-11-05T16:13:24,42.805,6.029,4330,1995,198.481,60.696,13.287
2017-11-05T16:16:24,42.805,6.029,4330,1995,198.452,60.687,13.286
2017-11-05T16:19:24,42.805,6.029,4330,1995,198.512,60.705,13.286
2017-11-05T16:22:24,42.805,6.029,4330,1995,198.571,60.723,13.286
2017-11-05T16:25:24,42.805,6.029,4330,1995,198.550,60.717,13.286
2017-11-05T16:28:24,42.805,6.029,4330,1995,198.516,60.706,13.286
2017-11-05T16:31:24,42.805,6.029,4330,1995,198.520,60.707,13.286
2017-11-05T16:34:24,42.805,6.029,4330,1995,198.486,60.697,13.286
2017-11-05T16:37:24,42.805,6.029,4330,1995,198.495,60.700,13.286
2017-11-05T16:40:24,42.805,6.029,4330,1995,198.558,60.719,13.286
2017-11-05T16:43:24,42.805,6.029,4330,1995,198.474,60.694,13.286
2017-11-05T16:46:24,42.805,6.029,4330,1995,198.477,60.694,13.286
2017-11-05T16:49:24,42.805,6.029,4330,1995,198.472,60.693,13.286
2017-11-05T16:52:24,42.805,6.029,4330,1995,198.503,60.703,13.286
2017-11-05T16:55:24,42.805,6.029,4330,1995,198.515,60.706,13.286
2017-11-05T16:58:24,42.805,6.029,4330,1995,198.468,60.692,13.286
2017-11-05T17:01:24,42.805,6.029,4330,1995,198.476,60.694,13.286
2017-11-05T17:04:24,42.805,6.029,4330,1995,198.506,60.703,13.286
2017-11-05T17:07:24,42.805,6.029,4330,1995,198.540,60.714,13.286
2017-11-05T17:10:24,42.805,6.029,4330,1995,198.571,60.724,13.286
2017-11-05T17:13:24,42.805,6.029,4330,1995,198.559,60.720,13.286
2017-11-05T17:16:24,42.805,6.029,4330,1995,198.657,60.749,13.286
2017-11-05T17:19:24,42.805,6.029,4330,1995,198.587,60.728,13.286
2017-11-05T17:22:24,42.805,6.029,4330,1995,198.645,60.746,13.286
2017-11-05T17:25:24,42.805,6.029,4330,1995,198.671,60.754,13.286
2017-11-05T17:28:24,42.805,6.029,4330,1995,198.765,60.783,13.286
2017-11-05T17:31:24,42.805,6.029,4330,1995,198.796,60.792,13.286
2017-11-05T17:34:24,42.805,6.029,4330,1995,198.793,60.791,13.286
2017-11-05T17:37:24,42.805,6.029,4330,1995,198.783,60.788,13.286
2017-11-05T17:40:24,42.805,6.029,4330,1995,198.796,60.792,13.286
2017-11-05T17:43:24,42.805,6.029,4330,1995,198.847,60.808,13.286
2017-11-05T17:46:24,42.805,6.029,4330,1995,198.845,60.807,13.286
2017-11-05T17:49:24,42.805,6.029,4330,1995,198.895,60.822,13.286
2017-11-05T17:52:24,42.805,6.029,4330,1995,198.924,60.831,13.286
2017-11-05T17:55:24,42.805,6.029,4330,1995,198.969,60.845,13.286
2017-11-05T17:58:24,42.805,6.029,4330,1995,198.923,60.831,13.286
2017-11-05T18:01:24,42.805,6.029,4330,1995,198.914,60.828,13.286
2017-11-05T18:04:24,42.805,6.029,4330,1995,198.925,60.832,13.286
2017-11-05T18:07:24,42.805,6.029,4330,1995,198.945,60.838,13.286